Location: Unspecified
(0.0000°N, 0.0000°E)
Time: 06:19:54
(UTC+00:00)

Vanguard 2 Rocket - Pass Details

Date: 07 October 2023
Orbit: 552 x 3312 km, 32.9° (Epoch: 06 December)

Event Time Altitude Azimuth Distance (km) Brightness Sun altitude
Rises 06:44:32 0° 271° (W) 3,735 9.4 14.1°
Reaches altitude 10° 06:47:14 10° 284° (WNW) 3,086 9.1 14.7°
Maximum altitude 06:53:45 27° 340° (NNW) 2,719 9.2 16.4°
Drops below altitude 10° 07:03:51 10° 32° (NNE) 4,877 11.0 18.9°
Sets 07:09:37 0° 42° (NE) 6,378 11.7 20.3°
